Content
SEND FEEDBACK

Daily
Averages
Monthly
Summary
United States of America

PINEDALE, WYOMING


Home > North America > United States > Wyoming
Elevation: 7239 feet     Latitude: 42 52N     Longitude: 109 51W

WEATHER
 
SELECT A DAY
Number of Records: 246,362;   Date Range: 9/20/04 - 11/24/14
 
SHARE

PRINT THIS DATA

[ ← Previous Day ]
WEATHER ALMANAC - JANUARY 31, 2013
[ Next Day → ]
[ °C ]   °F
Weather ElementAverageHighLow
Temperature24.7 °F30.2 °F (11:35 am)17.6 °F (6:35 pm)
Dewpoint19.8 °F23 °F (12:35 am)15.8 °F (6:35 pm)
Humidity82.1 %100 % (1:55 am)69 % (11:35 am)
Barometer30.13 in30.18 in (11:15 am)30.00 in (12:35 am)
Wind Speed14 mph24.2 mph (4:35 am)
Wind Gust29.9 mph (4:35 am)
Weather ElementAverage
Visibility9.5 mi
Wind DirectionWSW (245.4 °)

Weather ElementTotal
Precipitation---
Heating Degree Days41.1 (Base 65)
Averaged from 71 records on January 31, 2013
WEATHER CONDITIONS BREAKOUT
WIND DIRECTION BREAKOUT
WEATHER BY HOUR - JANUARY 31, 2013
[ °C ]   °F
Local TimeTemperatureDewpointHumidityBarometerVisibilityWind DirectionWind SpeedGust SpeedPrecipitationEventsConditions
12:35 AM26.6 °F23.0 °F86 %30.00 in3.0 miWNW (300°)20.7 mph25.3 mphSnowLight Snow
12:55 AM24.8 °F23.0 °F93 %30.01 in4.0 miWNW (290°)17.3 mphSnowLight Snow
1:15 AM24.8 °F23.0 °F93 %30.01 in4.0 miWNW (300°)16.1 mphSnowLight Snow
1:35 AM23.0 °F21.2 °F93 %30.01 in10.0 miWNW (300°)16.1 mphScattered Clouds
1:55 AM23.0 °F23.0 °F100 %30.03 in10.0 miWNW (290°)19.6 mphScattered Clouds
2:15 AM24.8 °F21.2 °F86 %30.03 in10.0 miWNW (290°)17.3 mphScattered Clouds
2:35 AM24.8 °F21.2 °F86 %30.05 in10.0 miWNW (290°)16.1 mphScattered Clouds
2:55 AM24.8 °F21.2 °F86 %30.05 in10.0 miWNW (290°)16.1 mphMostly Cloudy
3:15 AM26.6 °F21.2 °F80 %30.05 in10.0 miWNW (290°)17.3 mph24.2 mphOvercast
3:35 AM26.6 °F21.2 °F80 %30.06 in10.0 miWNW (300°)18.4 mphOvercast
3:55 AM26.6 °F21.2 °F80 %30.06 in10.0 miWNW (290°)23.0 mph28.8 mphOvercast
4:15 AM26.6 °F21.2 °F80 %30.07 in7.0 miWNW (290°)20.7 mph28.8 mphOvercast
4:35 AM26.6 °F19.4 °F74 %30.07 in10.0 miWNW (290°)24.2 mph29.9 mphOvercast
4:55 AM24.8 °F21.2 °F86 %30.08 in5.0 miWNW (290°)23.0 mphScattered Clouds
5:15 AM26.6 °F19.4 °F74 %30.08 in10.0 miWNW (290°)23.0 mph27.6 mphScattered Clouds
5:35 AM26.6 °F19.4 °F74 %30.08 in10.0 miWNW (290°)23.0 mph27.6 mphScattered Clouds
5:55 AM23.0 °F19.4 °F86 %30.08 in5.0 miWNW (300°)24.2 mphClear
6:15 AM23.0 °F19.4 °F86 %30.09 in7.0 miNW (320°)21.9 mphClear
6:35 AM23.0 °F19.4 °F86 %30.09 in10.0 miNW (320°)20.7 mphClear
6:55 AM23.0 °F17.6 °F80 %30.09 in10.0 miNNW (330°)19.6 mph27.6 mphClear
7:15 AM21.2 °F17.6 °F86 %30.09 in10.0 miNNW (330°)17.3 mphClear
7:35 AM21.2 °F17.6 °F86 %30.10 in10.0 miNNW (330°)19.6 mphClear
7:55 AM21.2 °F17.6 °F86 %30.10 in10.0 miNNW (330°)18.4 mphClear
8:15 AM21.2 °F19.4 °F93 %30.11 in10.0 miNW (320°)20.7 mphClear
8:35 AM23.0 °F17.6 °F80 %30.13 in10.0 miNW (320°)17.3 mphClear
8:55 AM23.0 °F17.6 °F80 %30.13 in10.0 miNW (310°)17.3 mphClear
9:15 AM24.8 °F19.4 °F80 %30.13 in10.0 miNW (310°)17.3 mphClear
9:35 AM26.6 °F19.4 °F74 %30.14 in10.0 miNW (320°)18.4 mphClear
9:55 AM26.6 °F19.4 °F74 %30.15 in10.0 miNW (310°)19.6 mphClear
10:15 AM26.6 °F19.4 °F74 %30.16 in10.0 miNW (310°)15.0 mph19.6 mphClear
10:35 AM28.4 °F21.2 °F74 %30.17 in10.0 miWNW (300°)16.1 mphClear
10:55 AM28.4 °F21.2 °F74 %30.17 in10.0 miWNW (300°)17.3 mph21.9 mphClear
11:15 AM28.4 °F21.2 °F74 %30.18 in10.0 miWNW (300°)15.0 mphClear
11:35 AM30.2 °F21.2 °F69 %30.18 in10.0 miWNW (300°)11.5 mphScattered Clouds
11:55 AM30.2 °F21.2 °F69 %30.18 in10.0 miNW (310°)16.1 mphMostly Cloudy
12:15 PM30.2 °F21.2 °F69 %30.17 in10.0 miWNW (300°)15.0 mphMostly Cloudy
12:35 PM30.2 °F21.2 °F69 %30.17 in10.0 miNW (310°)16.1 mphMostly Cloudy
12:55 PM30.2 °F21.2 °F69 %30.16 in10.0 miNW (310°)19.6 mph24.2 mphScattered Clouds
1:15 PM30.2 °F21.2 °F69 %30.16 in10.0 miNW (310°)18.4 mphClear
1:35 PM30.2 °F21.2 °F69 %30.16 in10.0 miWNW (300°)13.8 mphScattered Clouds
1:55 PM30.2 °F21.2 °F69 %30.16 in10.0 miWNW (300°)16.1 mphScattered Clouds
2:15 PM30.2 °F21.2 °F69 %30.15 in10.0 miWNW (300°)18.4 mphClear
2:35 PM30.2 °F21.2 °F69 %30.15 in10.0 miWest (280°)15.0 mphScattered Clouds
2:55 PM30.2 °F21.2 °F69 %30.15 in10.0 miWest (270°)18.4 mphScattered Clouds
3:15 PM30.2 °F21.2 °F69 %30.16 in10.0 miWest (280°)18.4 mph25.3 mphScattered Clouds
3:35 PM28.4 °F19.4 °F69 %30.16 in10.0 miWNW (290°)20.7 mphClear
3:55 PM28.4 °F19.4 °F69 %30.16 in10.0 miWNW (290°)19.6 mph24.2 mphScattered Clouds
4:15 PM28.4 °F21.2 °F74 %30.16 in10.0 miWNW (300°)18.4 mph28.8 mphScattered Clouds
4:35 PM28.4 °F21.2 °F74 %30.16 in10.0 miWNW (300°)20.7 mphScattered Clouds
4:55 PM28.4 °F21.2 °F74 %30.15 in10.0 miNW (310°)20.7 mphClear
5:15 PM26.6 °F21.2 °F80 %30.16 in10.0 miWNW (290°)12.7 mphScattered Clouds
5:35 PM24.8 °F19.4 °F80 %30.16 in10.0 miWest (280°)9.2 mphClear
5:55 PM21.2 °F17.6 °F86 %30.17 in10.0 miWest (260°)5.8 mphClear
6:15 PM21.2 °F19.4 °F93 %30.17 in10.0 miWNW (290°)5.8 mphClear
6:35 PM17.6 °F15.8 °F93 %30.17 in10.0 miWNW (290°)6.9 mphScattered Clouds
6:55 PM17.6 °F15.8 °F93 %30.17 in10.0 miCalmClear
7:15 PM19.4 °F17.6 °F93 %30.17 in10.0 miCalmScattered Clouds
7:35 PM21.2 °F17.6 °F86 %30.17 in10.0 miWSW (240°)3.5 mphScattered Clouds
7:55 PM17.6 °F17.6 °F100 %30.17 in10.0 miCalmMostly Cloudy
8:15 PM17.6 °F15.8 °F93 %30.18 in10.0 miSW (230°)3.5 mphOvercast
8:35 PM19.4 °F17.6 °F93 %30.17 in10.0 miCalmOvercast
8:55 PM19.4 °F17.6 °F93 %30.17 in10.0 miCalmOvercast
9:15 PM19.4 °F17.6 °F93 %30.18 in10.0 miCalmOvercast
9:35 PM21.2 °F19.4 °F93 %30.18 in10.0 miCalmOvercast
9:55 PM21.2 °F19.4 °F93 %30.18 in10.0 miENE (70°)3.5 mphOvercast
10:15 PM21.2 °F19.4 °F93 %30.18 in10.0 miCalmOvercast
10:35 PM21.2 °F19.4 °F93 %30.17 in10.0 miCalmOvercast
10:55 PM21.2 °F19.4 °F93 %30.17 in10.0 miEast (90°)3.5 mphOvercast
11:15 PM21.2 °F19.4 °F93 %30.16 in10.0 miEast (90°)4.6 mphOvercast
11:35 PM21.2 °F19.4 °F93 %30.16 in10.0 miESE (110°)4.6 mphOvercast
11:55 PM21.2 °F19.4 °F93 %30.16 in10.0 miEast (80°)4.6 mphOvercast
Hourly data recorded from KPNA, located miles away from Pinedale, Wyoming







STORIES FROM OUR PARTNERS